Location: Unspecified
(0.0000°N, 0.0000°E)
Time: 05:09:50
(UTC+00:00)

COSMOS 2391 - Visible Passes

Search period start: 19 June 2024 00:00
Search period end: 29 June 2024 00:00
Orbit: 1464 x 1507 km, 82.5° (Epoch: 18 June)

Date Brightness Start Highest point End Pass type
(mag) Time Alt. Az. Time Alt. Az. Time Alt. Az.
24 Jun 10.5 22:26:40 10° N 22:27:15 12° N 22:27:15 12° N visible
25 Jun 10.5 21:36:03 10° NNE 21:36:12 11° NNE 21:36:12 11° NNE visible
26 Jun 10.5 22:40:07 10° NNW 22:40:55 13° NNW 22:40:55 13° NNW visible
27 Jun 10.3 21:48:38 10° N 21:49:55 15° N 21:49:55 15° N visible
28 Jun 10.4 20:58:47 10° NNE 20:58:55 10° NE 20:58:55 10° NE visible
28 Jun 10.6 22:54:04 10° NNW 22:54:40 12° NNW 22:54:40 12° NNW visible
